"Pseudo-MPEC" for C9G4XQ2

Created 2023 Oct 8 15:22:09 UT using Find_Orb

Click here for an explanation of pseudo-MPECs

 
 Astrometry: 
     C9G4XQ2 KC2023 06 238bcOS\=tEIg9X^e@YdO_+B]tTZR33DuQt(3NyasHOk;a*[cD0O,_F52
     C9G4XQ2 KC2023 06 29$;sVNaT#8(+%W_f*aov#VZ]kC(Uy1b_5#2E+s.e(mj9,1Dntq7T.F51
     C9G4XQ2* C2023 08 21(Q68PHi7W7O7$;sK+gX1Lw_C49QpDBbtDb5s@L5I=md7?J$w@iI=F51
     C9G4XQ2  C2023 08 21NF+AQVeM9q[W-.QYx!wkeh05F-0i0M=038i#ia;vN+%5)ftFT+5TF51
     C9G4XQ2  C2023 08 21lECWM:g:,])/MDhA.jL3%Unl)n4]/[),l0!3J-q-qD+wfL+0Rri-F51
     C9G4XQ2  C2023 08 21@5k4jYry:U+`?,ti:kP1i[b/bG?:?.`xmNhLgAUL't3!='FGli)TF51
     C9G4XQ2  C2023 08 23xkUq+NZ-hXT=F'=gAstrometryHMmOG+?-QfSuI-s:bkkKaY)v)CF52
     C9G4XQ2  C2023 08 23nJkA=thx%a_1N9,wYl=Jl.O-g2I;F2?kS7fuiE]N0eApvP.9TT!*F52
     C9G4XQ2  C2023 08 23bhe`22rQ#KBCG1C^:SI5$e1TNJ.(K8Dn/0TAv'LSRIwSZt7N':d+F52
     C9G4XQ2  C2023 09 06u_TH6%:[MIE(DA/Kt;tKo.E`]'!!2[vL5vt%h`Ol+1jt;Uji9RyiF51
     C9G4XQ2  C2023 09 06-Tjs5fE$=s*sbDT*hD0b:e,]FE5Ly$3Sn,C5,GR%+%g*'uhotR2hF51
     C9G4XQ2  C2023 09 06rrKaD=?1Jh=m#Io/)T4p^oFredacted;?tY+bQ#3ouNmlH$=6u0mF51
     C9G4XQ2 1C2023 09 07.37682523 59 22.841-15 32 07.01   ~9BFb 20.93GVNEOCPG96
     C9G4XQ2 1C2023 09 07.38196023 59 22.924-15 32 17.95   ~9BFb 20.46GVNEOCPG96
     C9G4XQ2 1C2023 09 07.38708523 59 22.967-15 32 28.68   ~9BFb 21.08GVNEOCPG96
     C9G4XQ2 1C2023 09 07.39223023 59 23.078-15 32 39.80   ~9BFb 20.29GVNEOCPG96
     C9G4XQ2  C2023 09 07EYNhjx9x-Xrf=4=ufp*YcR]hXj5W$7_l[8ruj%-ckKQbFSNp^-YjF52
     C9G4XQ2  C2023 09 07D93W^H4`N.ufZpV:Xs_)KH)XvSp^3a(t_BN4\B2hW(xq`rVCwXUUF52
     C9G4XQ2  C2023 09 07ZmGgO';57=4N?1`ahB_9]1IZb(ar7Ax*B?YIZHIKe^y*o_E7\+P?F52
     C9G4XQ2  C2023 09 08pyy3[:+r[]W6'6^*aJBaTkT(\_2U/f/vGI'@_vt2w0q(LuJgOpg]F51
     C9G4XQ2  C2023 09 08x$Be3,+B(,ldQ\#mWikg`Mm[QZeGHEem+J6gV(Q]Yh`EOqfjxZ%PF51
     C9G4XQ2  C2023 09 08:DwpmwvljwfZCbJu8@!]IMI9K]sUR=SHdPyVmC-Y#LVev6:hVoKBF51
     C9G4XQ2  C2023 09 08NsH2l#dd02N;1+.TlA1RPnhj\E`a%\click6R^yfcLR7gBOL5K^-F51
     C9G4XQ2 1C2023 09 14#4VkY8j?ToUj:l!02d\!$\x-cgXGt[5*'HwqAQAwACkgD!S.7qcoQ62
     C9G4XQ2 1C2023 09 14.a#qN[r#q-axV^IQ5jN03sQWt*?fV)[dD8[MNS*E:kwJPFekPP$JQ62
     C9G4XQ2  C2023 09 15'6xfUB8T,]lgdttn?4_p_5qaUbk_@ofVHRfft$tZ;g!%aus[03+IF51
     C9G4XQ2  C2023 09 15HdWU_%];Mi[mdhere`hxU/[Ju.__Ak.DGrUfNr%-/tZxV'forpo;F51
     C9G4XQ2  C2023 09 15KX;`)johPj3^4[WD!_ZlKT#da@Z1[,iPlL@;op,(Ut=fr%4RK9aQF51
     C9G4XQ2  C2023 09 15=Kl],#rlmH8shTh_:qnhh4aa9umdiTo`Zaw@?o22=J_+XNDryl;gF51
     C9G4XQ2 KC2023 09 18(sQP]t^,ZHW^gexplanationLpSCu8OS@M?@AawitN?1I$r]v@;[E94
     C9G4XQ2 KC2023 09 18aA+ne,n4'u:Fo5-p2QD:JU=NM!%Gp`.kEV0Lc$:DTTjICR?/)cI-E94
     C9G4XQ2 KC2023 09 19sA\Fv;Hl!07gH*L@NZNr*qJ#-g*;:KQ`!lbmGs*G`RNDYnr9CjwnE94
     C9G4XQ2 KC2023 09 19o!Oh3q\8v9n_,o2j=rwEp0mhIj2!_'h^D!/92RZa8Ps\GEYl;i_]E94
     C9G4XQ2 KC2023 09 19mPpniQpWi:2ytKevWE8ou1QB1ehT(d!24o!e?2U3D.-os^vunajLE94
     C9G4XQ2 KC2023 09 19kYSa=!s+KNpD`%2^g?-`W3%-.Moh=A4PN4kEiPnl!9,Z%jHxw.V0E94

Station data:
(E94) Gisborne (Possum Observatory)  (S38.629920 E177.883310)  New Zealand.
   Observer J. Drummond. 0.41-m f/4.5 Newtonian reflector + CCD.
(F51) Pan-STARRS 1, Haleakala  (N20.707234 W156.255910)  US/Hawaii.
   Observers J. Bulger, T. Lowe, A. Schultz, M. Willman. Measurers K.
   Chambers, S. Chastel, T. de Boer, L. Denneau, J. Fairlamb, H. Flewelling,
   M. Huber, C.-C. Lin, E. Magnier, Y. Ramanjooloo, R. Wainscoat, R. Weryk.
   1.8-m Ritchey-Chrétien + CCD.
(F52) Pan-STARRS 2, Haleakala  (N20.707382 W156.255910)  US/Hawaii.
   Observers J. Bulger, T. Dukes, T. Lowe, A. Schultz, M. Willman. Measurers
   K. Chambers, S. Chastel, T. de Boer, L. Denneau, J. Fairlamb, H.
   Flewelling, M. Huber, C.-C. Lin, E. Magnier, Y. Ramanjooloo, R. Wainscoat,
   R. Weryk. 1.8-m Ritchey-Chrétien + CCD.
(G96) Mt. Lemmon Survey  (N32.442751 W110.788720)  US/Arizona.  Observer E.
   J. Christensen. 1.5-m reflector + 10K CCD.
(Q62) iTelescope Observatory, Siding Spring  (S31.273286 E149.064420)
   Australia/NSW.  Observer H. Sato. 0.51-m f/6.8 astrograph + CCD + f/4.5
   focal reducer0.43-m f/6.8 astrograph + CCD + focal reducer0.43-m f/6.8
   astrograph + CCD0.10-m f/5 astrograph + CCD0.127-m f/5.6 refractor +
   CCD0.50-m f/6.8 reflector + CCD0.30-m f/9 reflector + CCD.

Orbital elements:  C9G4XQ2
   Perihelion 2023 Sep 24.15241 +/- 0.000826 TT =  3:39:28 (JD 2460211.65241)
Epoch 2023 Sep 19.0 TT = JDT 2460206.5                           AutoNEOCP
M 359.94724349 +/- 0.000013         (J2000 ecliptic)
n   0.01023919 +/- 2.57e-6          Peri.  199.98132 +/- 0.00038
a  21.0035226 +/- 0.00351           Node   159.20702 +/- 0.000058
e   0.9039859 +/- 1.57e-5           Incl.   37.04805 +/- 0.00021
P  96.26                   H 18.57  G  0.15   U  4.1
q 2.01663372 +/- 7.2e-6    Q 39.9904114 +/- 0.00702
34 of 35 observations 2023 June 23-Sept. 19; mean residual 0".19
Residuals in arcseconds: 
230623 F52  .03-  .13+    230907 G96  .36-  .11-    230914 Q62  .16+  .05-    
230629 F51  .05+  .16-    230907 G96  .13-  .11-    230915 F51  .05+  .04-    
230821 F51  .03-  .07-    230907 G96  .47-  .08+    230915 F51  .04+  .06+    
230821 F51  .14+  .03-    230907 G96  .16+  .08-    230915 F51  .01+  .03+    
230821 F51  .05+  .07+    230907 F52  .03+  .07+    230915 F51  .11+  .05-    
230821 F51  .04-  .12-    230907 F52  .03-  .02+    230918 E94  .21+  .43+    
230823 F52  .12-  .31+    230907 F52  .06+  .03+    230918 E94  .11+  .14+    
230823 F52  .11+  .01-    230908 F51  .02-  .01-    230919 E94( 2.3-  .92+)   
230823 F52  .07-  .08+    230908 F51  .01-  .06-    230919 E94  .81-  .82+    
230906 F51  .01+  .01-    230908 F51  .01-  .09-    230919 E94  .08+  .17-    
230906 F51  .08+  .30-    230908 F51  .02+  .03-    230919 E94  .09-  .01+    
230906 F51  .24-  .01-    230914 Q62  .06+  .04-    

Ephemerides (geocentric):
Date (UTC) HH   RA             Dec           delta  r     elong  mag " sig PA
---- --------  ------------   ------------  ------ ------ -----  --- --------
2023 10 08 15  00 05 19.868   -31 01 41.73  1.1445 2.0235 141.3 21.3 .154 120
2023 10 08 16  00 05 20.472   -31 02 32.51  1.1448 2.0235 141.3 21.3 .154 120
2023 10 08 17  00 05 21.077   -31 03 23.22  1.1451 2.0236 141.3 21.3 .154 120
2023 10 08 18  00 05 21.684   -31 04 13.85  1.1454 2.0236 141.2 21.3 .155 120
2023 10 08 19  00 05 22.291   -31 05 04.40  1.1457 2.0237 141.2 21.3 .155 120
2023 10 08 20  00 05 22.900   -31 05 54.88  1.1460 2.0237 141.2 21.3 .155 120
2023 10 08 21  00 05 23.510   -31 06 45.28  1.1463 2.0237 141.1 21.3 .155 120
2023 10 08 22  00 05 24.121   -31 07 35.61  1.1466 2.0238 141.1 21.3 .156 120
2023 10 08 23  00 05 24.733   -31 08 25.86  1.1469 2.0238 141.0 21.3 .156 120
2023 10 09 00  00 05 25.347   -31 09 16.04  1.1473 2.0239 141.0 21.3 .156 120
2023 10 09 01  00 05 25.962   -31 10 06.14  1.1476 2.0239 141.0 21.3 .156 120
2023 10 09 02  00 05 26.577   -31 10 56.17  1.1479 2.0239 140.9 21.3 .156 120
2023 10 09 03  00 05 27.194   -31 11 46.12  1.1482 2.0240 140.9 21.3 .157 120
2023 10 09 04  00 05 27.813   -31 12 36.00  1.1485 2.0240 140.8 21.3 .157 120
2023 10 09 05  00 05 28.432   -31 13 25.80  1.1488 2.0241 140.8 21.3 .157 120
2023 10 09 06  00 05 29.053   -31 14 15.53  1.1491 2.0241 140.8 21.3 .157 120
2023 10 09 07  00 05 29.675   -31 15 05.18  1.1494 2.0241 140.7 21.3 .158 120
2023 10 09 08  00 05 30.298   -31 15 54.76  1.1497 2.0242 140.7 21.3 .158 120
2023 10 09 09  00 05 30.923   -31 16 44.26  1.1500 2.0242 140.6 21.3 .158 120
2023 10 09 10  00 05 31.548   -31 17 33.68  1.1503 2.0243 140.6 21.4 .158 120
2023 10 09 11  00 05 32.175   -31 18 23.03  1.1507 2.0243 140.6 21.4 .159 120
2023 10 09 12  00 05 32.803   -31 19 12.31  1.1510 2.0244 140.5 21.4 .159 120
2023 10 09 13  00 05 33.432   -31 20 01.51  1.1513 2.0244 140.5 21.4 .159 121
2023 10 09 14  00 05 34.063   -31 20 50.63  1.1516 2.0244 140.5 21.4 .159 121
2023 10 09 15  00 05 34.695   -31 21 39.68  1.1519 2.0245 140.4 21.4 .159 121
2023 10 09 16  00 05 35.328   -31 22 28.66  1.1522 2.0245 140.4 21.4 .160 121
2023 10 09 17  00 05 35.962   -31 23 17.56  1.1525 2.0246 140.3 21.4 .160 121
2023 10 09 18  00 05 36.598   -31 24 06.38  1.1528 2.0246 140.3 21.4 .160 121
2023 10 09 19  00 05 37.234   -31 24 55.13  1.1532 2.0246 140.3 21.4 .160 121
2023 10 09 20  00 05 37.872   -31 25 43.80  1.1535 2.0247 140.2 21.4 .161 121
2023 10 09 21  00 05 38.512   -31 26 32.40  1.1538 2.0247 140.2 21.4 .161 121
2023 10 09 22  00 05 39.152   -31 27 20.93  1.1541 2.0248 140.1 21.4 .161 121
2023 10 09 23  00 05 39.794   -31 28 09.37  1.1544 2.0248 140.1 21.4 .161 121
2023 10 10 00  00 05 40.437   -31 28 57.75  1.1547 2.0249 140.1 21.4 .162 121
2023 10 10 01  00 05 41.082   -31 29 46.05  1.1551 2.0249 140.0 21.4 .162 121
2023 10 10 02  00 05 41.727   -31 30 34.27  1.1554 2.0250 140.0 21.4 .162 121
2023 10 10 03  00 05 42.374   -31 31 22.42  1.1557 2.0250 140.0 21.4 .162 121
2023 10 10 04  00 05 43.023   -31 32 10.49  1.1560 2.0250 139.9 21.4 .162 121
2023 10 10 05  00 05 43.672   -31 32 58.48  1.1563 2.0251 139.9 21.4 .163 121
2023 10 10 06  00 05 44.323   -31 33 46.41  1.1566 2.0251 139.8 21.4 .163 121
2023 10 10 07  00 05 44.975   -31 34 34.25  1.1570 2.0252 139.8 21.4 .163 121
2023 10 10 08  00 05 45.628   -31 35 22.02  1.1573 2.0252 139.8 21.4 .163 121
2023 10 10 09  00 05 46.283   -31 36 09.72  1.1576 2.0253 139.7 21.4 .164 121
2023 10 10 10  00 05 46.939   -31 36 57.34  1.1579 2.0253 139.7 21.4 .164 121
2023 10 10 11  00 05 47.596   -31 37 44.89  1.1582 2.0253 139.6 21.4 .164 122
2023 10 10 12  00 05 48.255   -31 38 32.36  1.1585 2.0254 139.6 21.4 .164 122
2023 10 10 13  00 05 48.915   -31 39 19.75  1.1589 2.0254 139.6 21.4 .165 122
2023 10 10 14  00 05 49.576   -31 40 07.07  1.1592 2.0255 139.5 21.4 .165 122